Weather History for Bellingham, WA

Change the Weather History Date:

Thursday, February 7, 2013

  Actual Average Record
Temperature  
Mean Temperature 39 °F 40 °F  
Max Temperature 48 °F 48 °F 60 °F (1954)
Min Temperature 30 °F 33 °F 20 °F (1989)
Degree Days  
Heating Degree Days 26 25  
Month to date heating degree days 175  
Cooling Degree Days 0 0  
Month to date cooling degree days 0  
Year to date cooling degree days 0  
Moisture  
Dew Point 35 °F    
Average Humidity 74    
Maximum Humidity 92    
Minimum Humidity 59    
Precipitation  
Precipitation 0.01 in 0.12 in 2.39 in (1955)
Month to date precipitation 0.82  
Year to date precipitation 5.49  
Sea Level Pressure  
Sea Level Pressure 30.01 in    
Wind  
Wind Speed 11 mph (SSE)    
Max Wind Speed 28 mph    
Max Gust Speed 38 mph    
Visibility 10 miles    
Events Rain    
T = Trace of Precipitation, MM = Missing Value Source: NWS Daily Summary

Daily Weather History Graph

Daily Weather History Graph

Search for Another Location

Airport:

Trip Planner

Search our weather history database for the weather conditions in past years. The results will help you decide how hot, cold, wet, or windy it might be!

Date:

Astronomy

Feb. 07, 2013 Rise Set
Actual Time 7:30 AM PST 5:18 PM PST
Civil Twilight 6:57 AM PST 5:51 PM PST
Nautical Twilight 6:20 AM PST 6:29 PM PST
Astronomical Twilight 5:43 AM PST 7:05 PM PST
Moon 5:22 AM PST (2/7) 2:42 PM PST (2/7)
Length of Visible Light 10h 54m
Length of Day
9h 47m
Waning Crescent, 8% of the Moon is Illuminated
Feb 7
Waning Crescent
Feb 9
New
Feb 17
First Quarter
Feb 25
Full
Mar 4
Last Quarter

Hourly Weather History & Observations

Time (PST) Temp. Windchill Dew Point Humidity Pressure Visibility Wind Dir Wind Speed Gust Speed Precip Events Conditions
12:53 AM 48.0 °F - 36.0 °F 63% 29.79 in 10.0 mi SE 15.0 mph 20.7 mph 0.00 in Rain Light Rain
1:53 AM 46.9 °F - 37.0 °F 68% 29.79 in 10.0 mi SE 9.2 mph - 0.00 in   Overcast
2:53 AM 44.1 °F 37.1 °F 39.0 °F 82% 29.80 in 10.0 mi East 15.0 mph 27.6 mph 0.00 in Rain Light Rain
3:53 AM 45.0 °F 36.6 °F 35.1 °F 68% 29.80 in 10.0 mi SSE 21.9 mph 38.0 mph 0.01 in   Mostly Cloudy
4:29 AM 44.6 °F 37.8 °F 35.6 °F 71% 29.80 in 10.0 mi SSE 15.0 mph 29.9 mph N/A   Mostly Cloudy
4:53 AM 45.0 °F 35.6 °F 35.1 °F 68% 29.85 in 10.0 mi SSE 27.6 mph 38.0 mph N/A   Mostly Cloudy
5:53 AM 45.0 °F 37.9 °F 36.0 °F 71% 29.90 in 10.0 mi SSE 16.1 mph 29.9 mph N/A   Overcast
6:08 AM 44.6 °F 37.4 °F 35.6 °F 71% 29.88 in 10.0 mi SSE 16.1 mph 29.9 mph N/A   Overcast
6:53 AM 44.1 °F 37.7 °F 36.0 °F 73% 29.94 in 10.0 mi SSE 12.7 mph - N/A   Overcast
7:53 AM 44.1 °F 38.1 °F 36.0 °F 73% 29.96 in 10.0 mi SSE 11.5 mph - N/A   Overcast
8:53 AM 44.1 °F 38.1 °F 36.0 °F 73% 30.00 in 10.0 mi SSE 11.5 mph - N/A   Overcast
9:49 AM 44.6 °F 38.8 °F 35.6 °F 71% 29.99 in 10.0 mi SSE 11.5 mph - N/A   Overcast
9:53 AM 45.0 °F 39.3 °F 36.0 °F 71% 30.02 in 10.0 mi SSE 11.5 mph - N/A   Overcast
10:01 AM 44.6 °F 38.8 °F 35.6 °F 71% 29.99 in 10.0 mi SSE 11.5 mph 20.7 mph N/A   Overcast
10:53 AM 45.0 °F 39.7 °F 36.0 °F 71% 30.05 in 10.0 mi South 10.4 mph - N/A   Overcast
11:40 AM 44.6 °F 40.2 °F 35.6 °F 71% 30.03 in 10.0 mi SSE 8.1 mph - N/A   Mostly Cloudy
11:53 AM 45.0 °F 40.6 °F 35.1 °F 68% 30.06 in 10.0 mi South 8.1 mph 17.3 mph N/A   Mostly Cloudy
12:53 PM 46.0 °F 41.9 °F 36.0 °F 68% 30.06 in 10.0 mi South 8.1 mph - N/A   Partly Cloudy
1:53 PM 46.9 °F - 37.0 °F 68% 30.06 in 10.0 mi Variable 5.8 mph - N/A   Clear
2:53 PM 46.0 °F 43.1 °F 34.0 °F 63% 30.07 in 10.0 mi SSW 5.8 mph - N/A   Clear
3:53 PM 46.9 °F - 33.1 °F 59% 30.08 in 10.0 mi South 3.5 mph - N/A   Partly Cloudy
4:53 PM 43.0 °F - 34.0 °F 71% 30.09 in 10.0 mi Calm Calm - N/A   Clear
5:53 PM 37.9 °F - 34.0 °F 86% 30.12 in 10.0 mi Calm Calm - N/A   Clear
6:53 PM 36.0 °F - 33.1 °F 89% 30.14 in 10.0 mi Calm Calm - N/A   Clear
7:53 PM 36.0 °F - 33.1 °F 89% 30.15 in 10.0 mi Calm Calm - N/A   Clear
8:53 PM 37.9 °F - 34.0 °F 86% 30.17 in 10.0 mi Calm Calm - N/A   Clear
9:53 PM 32.0 °F - 30.0 °F 92% 30.19 in 10.0 mi Calm Calm - N/A   Clear
10:53 PM 30.0 °F - 28.0 °F 92% 30.21 in 9.0 mi Calm Calm - N/A   Clear
11:53 PM 30.9 °F - 28.9 °F 92% 30.22 in 7.0 mi Calm Calm - N/A   Clear